| time (UTC) | temp F | wind direction | speed MPH | gust MPH | rain 1hr in | rain 24hr in | rain mn in | humidity % | barometer mb |
| 20260505003542 | 72 | 0 | 0.0 | 1.0 | 0.64 | 1.03 | 1.03 | 92 | 1013.7 |
| 20260505002642 | 72 | 0 | 0.0 | 2.0 | 0.71 | 1.01 | 1.02 | 92 | 1013.3 |
| 20260505000842 | 72 | 137 | 1.0 | 4.0 | 0.90 | 0.90 | 0.90 | 91 | 1013.3 |
| 20260504235942 | 73 | 37 | 1.0 | 4.0 | 0.77 | 0.77 | 0.78 | 92 | 1013.1 |
| 20260504235042 | 73 | 0 | 0.0 | 1.0 | 0.64 | 0.64 | 0.66 | 91 | 1012.9 |
| 20260504233242 | 74 | 23 | 1.0 | 2.0 | 0.37 | 0.37 | 0.38 | 87 | 1012.8 |
| 20260504232342 | 77 | 40 | 2.0 | 4.0 | 0.23 | 0.23 | 0.25 | 82 | 1012.7 |
| 20260504231442 | 80 | 165 | 1.0 | 4.0 | 0.00 | 0.00 | 0.00 | 71 | 1012.5 |
| 20260504230541 | 81 | 237 | 2.0 | 9.0 | 0.00 | 0.00 | 0.00 | 72 | 1012.3 |
| 20260504225642 | 82 | 105 | 1.0 | 5.0 | 0.00 | 0.00 | 0.00 | 67 | 1012.3 |
| 20260504224741 | 82 | 99 | 2.0 | 5.0 | 0.00 | 0.00 | 0.00 | 64 | 1012.2 |
| 20260504223841 | 83 | 111 | 1.0 | 5.0 | 0.00 | 0.00 | 0.00 | 64 | 1012.2 |
| 20260504222942 | 83 | 101 | 1.0 | 4.0 | 0.00 | 0.00 | 0.00 | 65 | 1012.0 |
| 20260504222041 | 83 | 89 | 2.0 | 7.0 | 0.00 | 0.00 | 0.00 | 64 | 1012.1 |
| 20260504220242 | 84 | 100 | 1.0 | 9.0 | 0.00 | 0.00 | 0.00 | 63 | 1012.1 |
| 20260504215341 | 85 | 143 | 1.0 | 5.0 | 0.00 | 0.00 | 0.00 | 61 | 1012.0 |
| 20260504214442 | 86 | 79 | 2.0 | 7.0 | 0.00 | 0.00 | 0.00 | 60 | 1011.9 |
| 20260504213542 | 87 | 65 | 2.0 | 7.0 | 0.00 | 0.00 | 0.00 | 57 | 1011.9 |
| 20260504212641 | 88 | 96 | 1.0 | 5.0 | 0.00 | 0.00 | 0.00 | 54 | 1011.9 |
| 20260504211742 | 89 | 89 | 1.0 | 3.0 | 0.00 | 0.00 | 0.00 | 54 | 1012.0 |
| 20260504210842 | 89 | 107 | 2.0 | 5.0 | 0.00 | 0.00 | 0.00 | 53 | 1012.0 |
| 20260504205941 | 89 | 68 | 3.0 | 9.0 | 0.00 | 0.00 | 0.00 | 53 | 1012.0 |
| 20260504205041 | 89 | 70 | 2.0 | 7.0 | 0.00 | 0.00 | 0.00 | 51 | 1012.1 |
| 20260504204142 | 90 | 69 | 2.0 | 4.0 | 0.00 | 0.00 | 0.00 | 53 | 1012.2 |
| 20260504203242 | 89 | 68 | 2.0 | 8.0 | 0.00 | 0.00 | 0.00 | 52 | 1012.3 |
| 20260504202341 | 89 | 87 | 2.0 | 10.0 | 0.00 | 0.00 | 0.00 | 53 | 1012.4 |
| 20260504201441 | 89 | 71 | 2.0 | 6.0 | 0.00 | 0.00 | 0.00 | 53 | 1012.4 |
| 20260504200541 | 90 | 80 | 1.0 | 5.0 | 0.00 | 0.00 | 0.00 | 52 | 1012.4 |
| 20260504195642 | 88 | 65 | 3.0 | 8.0 | 0.00 | 0.00 | 0.00 | 55 | 1012.7 |
| 20260504194742 | 88 | 67 | 3.0 | 8.0 | 0.00 | 0.00 | 0.00 | 55 | 1012.8 |
| 20260504193842 | 89 | 79 | 2.0 | 7.0 | 0.00 | 0.00 | 0.00 | 54 | 1012.8 |
| 20260504192941 | 89 | 76 | 2.0 | 6.0 | 0.00 | 0.00 | 0.00 | 53 | 1013.0 |
| 20260504192041 | 88 | 81 | 2.0 | 8.0 | 0.00 | 0.00 | 0.00 | 53 | 1013.0 |
| 20260504191141 | 88 | 72 | 2.0 | 10.0 | 0.00 | 0.00 | 0.00 | 55 | 1013.1 |
| 20260504190242 | 87 | 59 | 3.0 | 8.0 | 0.00 | 0.00 | 0.00 | 56 | 1013.3 |
| 20260504185341 | 86 | 67 | 3.0 | 9.0 | 0.00 | 0.00 | 0.00 | 57 | 1013.3 |
| 20260504184441 | 87 | 65 | 3.0 | 10.0 | 0.00 | 0.00 | 0.00 | 56 | 1013.5 |
| 20260504182641 | 86 | 71 | 3.0 | 8.0 | 0.00 | 0.00 | 0.00 | 57 | 1013.7 |
| 20260504181741 | 86 | 62 | 3.0 | 8.0 | 0.00 | 0.00 | 0.00 | 57 | 1013.7 |
| 20260504180841 | 86 | 64 | 3.0 | 9.0 | 0.00 | 0.00 | 0.00 | 57 | 1013.9 |
| 20260504175941 | 86 | 71 | 3.0 | 9.0 | 0.00 | 0.00 | 0.00 | 59 | 1013.9 |
| 20260504175041 | 84 | 71 | 4.0 | 10.0 | 0.00 | 0.00 | 0.00 | 59 | 1014.0 |
| 20260504174141 | 85 | 64 | 4.0 | 9.0 | 0.00 | 0.00 | 0.00 | 59 | 1014.1 |
| 20260504173241 | 84 | 69 | 4.0 | 13.0 | 0.00 | 0.00 | 0.00 | 61 | 1014.4 |
| 20260504172341 | 85 | 68 | 3.0 | 9.0 | 0.00 | 0.00 | 0.00 | 61 | 1014.6 |
| 20260504171441 | 84 | 70 | 4.0 | 11.0 | 0.00 | 0.00 | 0.00 | 61 | 1014.7 |
| 20260504160241 | 82 | 63 | 4.0 | 13.0 | 0.00 | 0.00 | 0.00 | 66 | 1015.4 |
| 20260504150841 | 80 | 60 | 5.0 | 12.0 | 0.00 | 0.00 | 0.00 | 69 | 1015.7 |
| 20260504140541 | 76 | 61 | 4.0 | 10.0 | 0.00 | 0.00 | 0.00 | 73 | 1015.5 |
| 20260504130241 | 73 | 62 | 4.0 | 9.0 | 0.00 | 0.00 | 0.00 | 80 | 1015.0 |
| 20260504110540 | 70 | 38 | 2.0 | 10.0 | 0.00 | 0.00 | 0.00 | 87 | 1014.0 |
| 20260504081437 | 71 | 62 | 3.0 | 7.0 | 0.00 | 0.00 | 0.00 | 86 | 1013.8 |
| 20260504080536 | 71 | 57 | 2.0 | 7.0 | 0.00 | 0.00 | 0.00 | 86 | 1013.9 |
| 20260504070236 | 71 | 68 | 3.0 | 9.0 | 0.00 | 0.00 | 0.00 | 86 | 1014.4 |
| 20260504050536 | 71 | 58 | 2.0 | 7.0 | 0.00 | 0.00 | 0.00 | 88 | 1015.3 |
| 20260504045636 | 71 | 65 | 3.0 | 8.0 | 0.00 | 0.00 | 0.00 | 87 | 1015.0 |
| 20260504044736 | 71 | 68 | 3.0 | 9.0 | 0.00 | 0.00 | 0.00 | 87 | 1014.7 |
| 20260504043837 | 71 | 57 | 2.0 | 7.0 | 0.00 | 0.00 | 0.00 | 86 | 1015.5 |
| 20260504042935 | 71 | 61 | 2.0 | 5.0 | 0.00 | 0.00 | 0.00 | 86 | 1015.5 |
| 20260504040236 | 71 | 65 | 3.0 | 7.0 | 0.00 | 0.00 | 0.00 | 86 | 1015.3 |
| 20260504035335 | 71 | 63 | 2.0 | 5.0 | 0.00 | 0.00 | 0.00 | 86 | 1015.5 |
| 20260504034435 | 71 | 70 | 2.0 | 8.0 | 0.00 | 0.00 | 0.00 | 86 | 1015.7 |
| 20260504033536 | 71 | 67 | 3.0 | 6.0 | 0.00 | 0.00 | 0.00 | 86 | 1015.5 |
| 20260504030836 | 71 | 70 | 2.0 | 7.0 | 0.00 | 0.04 | 0.00 | 87 | 1015.8 |
| 20260504025936 | 71 | 56 | 2.0 | 6.0 | 0.00 | 0.04 | 0.00 | 87 | 1015.7 |
| 20260504024136 | 71 | 65 | 3.0 | 7.0 | 0.00 | 0.05 | 0.00 | 87 | 1015.6 |
| 20260504023235 | 71 | 63 | 3.0 | 9.0 | 0.00 | 0.07 | 0.00 | 87 | 1015.7 |
| 20260504022336 | 71 | 65 | 3.0 | 10.0 | 0.00 | 0.10 | 0.00 | 87 | 1015.8 |
| 20260504020536 | 71 | 65 | 2.0 | 10.0 | 0.00 | 0.14 | 0.00 | 87 | 1015.8 |
| 20260504014736 | 71 | 67 | 3.0 | 9.0 | 0.00 | 0.27 | 0.00 | 86 | 1015.6 |
| 20260504012936 | 71 | 65 | 3.0 | 9.0 | 0.00 | 0.29 | 0.00 | 87 | 1015.2 |
| 20260504011136 | 71 | 65 | 4.0 | 8.0 | 0.00 | 0.29 | 0.00 | 86 | 1015.2 |
| 20260504010236 | 71 | 68 | 4.0 | 11.0 | 0.00 | 0.30 | 0.00 | 85 | 1015.1 |
| 20260504005336 | 72 | 63 | 4.0 | 10.0 | 0.00 | 0.34 | 0.00 | 83 | 1015.2 |